Weather History for Valdosta Regional, GA

Change the Weather History Date:

Wednesday, August 28, 2013

  Actual Average Record
Temperature  
Mean Temperature 84 °F 81 °F  
Max Temperature 95 °F 91 °F 102 °F (2011)
Min Temperature 72 °F 71 °F 62 °F (2014)
Cooling Degree Days 19 16  
Month to date cooling degree days 535 455  
Year to date cooling degree days 2218 1807  
Since 1 June cooling degree days 1656 1395  
Growing Degree Days 33 (Base 50)    
Moisture  
Dew Point 69 °F    
Average Humidity 64    
Maximum Humidity 87    
Minimum Humidity 41    
Precipitation  
Precipitation 0.00 in 0.15 in 0.17 in (1949)
Month to date precipitation 5.33 4.87  
Year to date precipitation 33.03 36.56  
Sea Level Pressure  
Sea Level Pressure 30.05 in    
Wind  
Wind Speed 2 mph (SSW)    
Max Wind Speed 8 mph    
Max Gust Speed 10 mph    
Visibility 10 miles    
Events      
T = Trace of Precipitation, MM = Missing Value Source: NWS Daily Summary

Daily Weather History Graph

Daily Weather History Graph

Search for Another Location

Airport:

Trip Planner

Search our weather history database for the weather conditions in past years. The results will help you decide how hot, cold, wet, or windy it might be!

Date:

Astronomy

Aug. 28, 2013 Rise Set
Actual Time 7:07 AM EDT 8:00 PM EDT
Civil Twilight 6:42 AM EDT 8:25 PM EDT
Nautical Twilight 6:13 AM EDT 8:54 PM EDT
Astronomical Twilight 5:43 AM EDT 9:24 PM EDT
Moon 12:24 AM EDT (8/28) 2:26 PM EDT (8/28)
Length of Visible Light 13h 42m
Length of Day
12h 53m
Waning Gibbous, 47% of the Moon is Illuminated
Aug 28
Waning Gibbous
Sep 5
New
Sep 12
First Quarter
Sep 19
Full
Sep 26
Last Quarter

Hourly Weather History & Observations

Time (EDT) Temp. Heat Index Dew Point Humidity Pressure Visibility Wind Dir Wind Speed Gust Speed Precip Events Conditions
12:53 AM 77.0 °F - 70.0 °F 79% 30.07 in 10.0 mi Calm Calm - N/A   Clear
1:53 AM 79.0 °F - 70.0 °F 74% 30.07 in 10.0 mi SE 5.8 mph - N/A   Overcast
2:53 AM 78.1 °F - 69.1 °F 74% 30.06 in 10.0 mi SE 3.5 mph - N/A   Partly Cloudy
3:53 AM 73.9 °F - 68.0 °F 82% 30.04 in 10.0 mi Calm Calm - N/A   Clear
4:53 AM 73.9 °F - 69.1 °F 85% 30.04 in 10.0 mi South 5.8 mph - N/A   Clear
5:53 AM 73.0 °F - 69.1 °F 87% 30.03 in 10.0 mi South 3.5 mph - N/A   Clear
6:53 AM 73.0 °F - 68.0 °F 84% 30.04 in 9.0 mi Calm Calm - N/A   Clear
7:53 AM 75.0 °F - 70.0 °F 84% 30.06 in 10.0 mi Calm Calm - N/A   Clear
8:53 AM 80.1 °F 83.6 °F 71.1 °F 74% 30.08 in 10.0 mi Calm Calm - N/A   Clear
9:53 AM 84.9 °F 87.6 °F 66.9 °F 55% 30.09 in 10.0 mi South 5.8 mph - N/A   Clear
10:53 AM 87.1 °F 91.3 °F 69.1 °F 55% 30.09 in 10.0 mi SSW 6.9 mph - N/A   Clear
11:53 AM 88.0 °F 93.8 °F 71.1 °F 57% 30.09 in 10.0 mi Calm Calm - N/A   Scattered Clouds
12:53 PM 91.0 °F 95.6 °F 69.1 °F 48% 30.09 in 10.0 mi Calm Calm - N/A   Mostly Cloudy
1:53 PM 93.0 °F 97.9 °F 69.1 °F 45% 30.07 in 10.0 mi Calm Calm - N/A   Scattered Clouds
2:53 PM 91.9 °F 96.9 °F 69.1 °F 47% 30.05 in 10.0 mi Calm Calm - N/A   Scattered Clouds
3:53 PM 91.0 °F 96.6 °F 70.0 °F 50% 30.02 in 10.0 mi Calm Calm - N/A   Scattered Clouds
4:53 PM 93.9 °F 97.5 °F 66.9 °F 41% 30.01 in 10.0 mi NW 4.6 mph - N/A   Scattered Clouds
5:53 PM 91.9 °F 95.4 °F 66.9 °F 44% 30.01 in 10.0 mi NW 5.8 mph - N/A   Scattered Clouds
6:53 PM 89.1 °F 92.1 °F 66.9 °F 48% 30.00 in 10.0 mi NW 3.5 mph - N/A   Scattered Clouds
7:53 PM 82.9 °F 85.8 °F 68.0 °F 60% 30.02 in 10.0 mi Calm Calm - N/A   Clear
8:53 PM 78.1 °F - 68.0 °F 71% 30.03 in 10.0 mi Calm Calm - N/A   Clear
9:53 PM 75.9 °F - 68.0 °F 76% 30.04 in 10.0 mi Calm Calm - N/A   Clear
10:53 PM 75.0 °F - 68.0 °F 79% 30.05 in 10.0 mi Calm Calm - N/A   Clear
11:53 PM 73.9 °F - 69.1 °F 85% 30.06 in 7.0 mi Calm Calm - N/A   Clear